Regional Weather Roundup
Issued by NWS

Home | Current Version | Previous Version | Graphics & Text | Print | Product List | Glossary On
Versions: 1 2 3 4 5 6 7 8 9 10 11 12 13 14 15 16 17 18 19 20 21 22 23 24 25 26 27 28 29 30 31 32 33 34 35 36 37 38 39 40 41 42 43 44 45 46 47 48 49
000
ASUS45 KBOU 261707
RWRCO

WEATHER ROUNDUP FOR COLORADO
NATIONAL WEATHER SERVICE DENVER/BOULDER CO
1000 AM MST THU FEB 26 2015

NOTE: "FAIR" INDICATES FEW OR NO CLOUDS BELOW 12000 FEET WITH NO
SIGNIFICANT WEATHER AND/OR OBSTRUCTIONS TO VISIBILITY.

COZ001>005-013-030-031-261800-
...NORTHWEST COLORADO...

CITY           SKY/WX    TMP DP  RH WIND       PRES   REMARKS
CRAIG          MOSUNNY   23  16  74 NE8       30.02F WCI  14
HAYDEN         SUNNY     19  12  73 SE8       30.00S WCI   9
MEEKER         CLOUDY    23  13  65 NW3       30.00F
MOUNT WERNER   NOT AVBL
STEAMBOAT SPGS PTSUNNY   16   8  72 CALM      29.99F
WALDEN         PTSUNNY   14  10  85 CALM      29.95S
$$

COZ006>008-011-261800-
...WEST CENTRAL VALLEYS...

CITY           SKY/WX    TMP DP  RH WIND       PRES   REMARKS
GRAND JUNCTION MOSUNNY   34  19  54 SE13      30.02F WCI  25
MONTROSE       MOSUNNY   25  19  78 CALM      30.05F
EAGLE          MOSUNNY   21  16  79 CALM      30.04F
RIFLE          MOSUNNY   27  14  58 NE7       30.04F WCI  19
DELTA          MOSUNNY   30  21  68 E3        30.06F
NUCLA          PTSUNNY   28  19  69 CALM      30.05S
$$

COZ017>023-064>068-261800-
...SOUTHWEST COLORADO...

CITY           SKY/WX    TMP DP  RH WIND       PRES   REMARKS
DURANGO        MOSUNNY   25  19  78 NE5       30.01F WCI  19
CORTEZ         MOSUNNY   30  18  60 MISG      30.01F
PAGOSA SPRINGS PTSUNNY   27  17  64 NE3       30.01F
TELLURIDE      PTSUNNY   20   9  62 SE5       29.97F WCI  14
WOLF CREEK PAS CLOUDY    12   1  62 S6        29.96S WCI   3
$$

COZ009-010-012-014-032>034-037-058>063-261800-
...CENTRAL COLORADO...

CITY           SKY/WX    TMP DP  RH WIND       PRES   REMARKS
ASPEN          SUNNY     22   6  50 CALM      29.95F
BUENA VISTA    FLURRIES  17  10  74 E5        30.00S WCI  10
COPPER MTN     PTSUNNY    9   1  72 W16G23    29.84R WCI  -9
BERTHOUD PASS  PTSUNNY    0  -8  71 NW22      29.80S HAZE    WCI -23
COTTONWOOD PAS LGT SNOW  14  10  85 SE3       29.92S VSB 1
GUNNISON       SUNNY     10   9  92 E3        30.03S
KREMMLING      MOSUNNY   18   7  62 CALM      30.01F
LEADVILLE      MOSUNNY   14   0  53 W8        29.88F WCI   3
MONARCH PASS     N/A      5   1  85 MISG      29.95S
SALIDA         PTSUNNY   21  10  62 SE9       30.09S WCI  11
SUNLIGHT       MOSUNNY   14  10  85 CALM        N/A
WILKERSON PASS LGT SNOW N/A N/A N/A SW6       29.88S VSB 1
$$

COZ069>075-261800-
...SAN LUIS VALLEY/SANGRE DE CRISTO MOUNTAINS...

CITY           SKY/WX    TMP DP  RH WIND       PRES   REMARKS
ALAMOSA        PTSUNNY   21  15  78 CALM      30.02R
LA VETA PASS   MOSUNNY   21  16  79 S7        29.93S HAZE    WCI  13
SAGUACHE       CLOUDY    21  18  86 SE8       30.01R WCI  12
$$

COZ035-036-038>040-261800-
...NORTHERN COLORADO FRONT RANGE...

CITY           SKY/WX    TMP DP  RH WIND       PRES   REMARKS
DENVER INTL AP LGT SNOW  13   7  77 E8        30.15F FOG     WCI   2
DMNS CITY PARK   N/A     15  11  83 E6        30.15F WCI   6
AURORA         PTSUNNY   13   7  78 SE8       30.15S WCI   1
FRONT RANGE AP LGT SNOW  18  10  73 E3        30.16S
ERIE MUNI ARPT CLOUDY    17  10  74 SE6       30.18S WCI   8
BOULDER MUN AP LGT SNOW  18  12  79 E3        30.16F
CENTENNIAL     MOSUNNY   13   6  74 E8        30.12F WCI   2
BROOMFIELD     LGT SNOW  16   9  73 E7        30.14F WCI   6
FORT COLLINS   MOSUNNY   16  10  79 E9        30.20S WCI   4
LONGMONT       LGT SNOW  22  12  65 SE3       30.21S
$$

COZ041-046-047-076>085-087-088-261800-
...PIKES PEAK/PALMER DIVIDE AND SOUTHERN FOOTHILLS...

CITY           SKY/WX    TMP DP  RH WIND       PRES   REMARKS
COLO. SPRINGS  LGT SNOW  13  11  92 S14       30.13S VSB 1   WCI  -2
A. F. ACADEMY  LGT SNOW  13   8  78 SE15      30.08S WCI  -2
ELLICOTT       NOT AVBL
FALCON         LGT SNOW  15   8  76 S10       30.08F WCI   2
FORT CARSON    LGT SNOW  13  10  87 S17       30.12S FOG     WCI  -3
LIMON          LGT SNOW  13   9  84 SE6       30.18S FOG     WCI   4
MONUMENT HILL  LGT SNOW  18   9  68 S10       30.03S WCI   6
TRINIDAD       CLOUDY    16  12  84 NE9       30.15R WCI   4
$$

COZ042>045-048>051-090-091-261800-
...NORTHEAST COLORADO...

CITY           SKY/WX    TMP DP  RH WIND       PRES   REMARKS
GREELEY ARPT   PTSUNNY   16   7  67 E8        30.21S WCI   5
AKRON          CLOUDY    11   7  84 E5        30.24R WCI   3
BURLINGTON     FLURRIES  15   8  73 NE8       30.28R WCI   4
WRAY           CLOUDY    17   5  61 NE5       30.34R WCI   9
STERLING       CLOUDY    16   9  73 E3        30.29S
HOLYOKE        NOT AVBL
FORT MORGAN    FLURRIES  15   9  76 E7        30.25R WCI   5
$$

COZ086-089-092>099-261800-
...SOUTHEAST COLORADO...

CITY           SKY/WX    TMP DP  RH WIND       PRES   REMARKS
PUEBLO         CLOUDY    16  13  88 SE10      30.22F WCI   4
LA JUNTA       SNOW      18  14  84 SE7       30.28R VSB 1/2 WCI   9
LAMAR          LGT SNOW  19  12  74 E10       30.30S WCI   7
SPRINGFIELD      N/A     16  11  80 E12       30.25S WCI   3
$$



USA.gov is the U.S. government's official web portal to all federal, state and local government web resources and services.